[[{"header":{"parameterUnit":"m.s-1","parameterCategory":1,"la1":30.2991,"la2":30.254,"lo1":-89.0895,"lo2":-89.0444,"dy":0.0017,"dx":0.0017,"nx":28,"ny":28,"refTime":"2023-08-26T09:00:00:Z","depth":0,"parameterNumber":2,"parameterNumberName":"U-component_of_WINDS"},"data":[0,0,0,0,0,0,0,0,0,0,0,0,0,0,0,0,0,0,0,0,0,0,0,0,0,0,0,0,0,0,0,0,0,0,0,0,0,0,0,0,0,0,0,0,0,0,0,0,0,0,0,0,0,0,0,0,0,0,3.8509,3.8508,0,3.8421,3.842,3.8419,3.8212,3.8207,3.8203,3.8199,3.81,3.8102,3.8103,0,0,0,0,0,0,0,0,0,0,0,0,0,3.8494,3.8496,3.8509,3.8508,3.8507,3.8421,3.842,3.8419,3.8212,3.8207,3.8202,3.8197,3.81,3.8101,3.8103,0,0,0,0,0,0,0,0,0,0,0,0,0,3.8463,3.8496,3.8509,3.8393,3.8382,3.8422,3.842,3.8419,3.8213,3.8207,3.82,3.8194,3.8099,3.8101,3.8103,3.8245,0,0,3.8109,3.811,0,0,0,0,0,0,0,0,3.8465,3.8464,3.8412,3.8402,3.8389,3.8321,3.8379,3.836,3.8215,3.8277,3.8199,3.8191,3.8178,3.8173,3.8171,3.824,3.8236,3.811,3.8111,3.8112,3.8112,0,0,0,0,0,0,0,3.8468,3.8466,3.8474,3.8411,3.8397,3.8345,3.8334,3.8374,3.8264,3.8271,3.8256,3.8249,3.8171,3.8169,3.8167,3.8234,3.811,3.8111,3.8113,3.8114,3.8422,3.8429,0,0,0,0,0,0,3.8487,3.847,3.8476,3.8471,3.8412,3.8351,3.8338,3.8349,3.8264,3.8245,3.8255,3.824,3.8169,3.8165,3.8163,3.8326,3.8112,3.8114,3.8115,3.8416,3.8424,3.8432,0,0,0,0,0,0,3.8488,3.849,3.848,3.8466,3.8461,3.8358,3.8372,3.8351,3.8349,3.8251,3.823,3.8274,3.8164,3.816,3.8228,3.8319,3.8115,3.8117,3.8407,3.8418,3.8428,3.8652,0,0,0,0,0,0,3.8488,3.8491,3.8544,3.8469,3.8463,3.8548,3.8378,3.8354,3.8354,3.8334,3.8263,3.8245,3.8158,3.8226,3.823,3.8318,3.8118,3.8398,3.8412,3.8424,3.8636,3.8669,3.8697,0,0,0,0,0,3.8488,3.8607,3.8547,3.8549,3.8527,3.8554,3.855,3.845,3.8362,3.8414,3.8353,3.8247,3.8311,3.8235,3.8238,3.8328,3.8392,3.8408,3.8423,3.8622,3.8663,3.8697,0,0,0,0,0,0,3.8688,3.8594,3.8527,3.8625,3.8601,3.8519,3.858,3.8495,3.849,3.8471,3.8345,3.8331,3.8418,3.8379,3.8297,3.8464,3.8334,3.8352,3.8485,3.8522,3.8552,3.8558,3.812,0,0,0,0,0,3.8746,3.8777,3.8692,3.8787,3.8779,3.8684,3.8691,3.8618,3.8584,3.8571,3.8514,3.8484,3.8498,3.8508,3.8514,3.8632,3.8614,3.8696,3.8727,3.8752,3.8767,3.8831,3.8867,3.8483,3.8483,3.8483,0,0,3.886,3.8813,3.8839,3.8827,3.8798,3.8833,3.8674,3.8716,3.8742,3.8576,3.8638,3.8598,3.8556,3.8652,3.869,3.8622,3.8871,3.8772,3.8794,3.8794,3.8851,3.8887,3.892,3.8494,3.8492,3.849,0,0,3.9087,3.9055,3.9133,3.911,3.9072,3.9009,3.9029,3.8963,3.8931,3.8993,3.8872,3.89,3.8924,3.8902,3.8893,3.9126,3.9029,3.9131,3.9289,3.9353,3.9383,3.9409,3.9494,3.9525,3.9147,3.9148,3.9148,0,3.9233,3.9283,3.9182,3.9236,3.9235,3.9095,3.9174,3.9155,3.912,3.9123,3.9049,3.9083,3.9044,3.9135,3.9193,3.919,3.9209,3.9136,3.9388,3.9413,3.9436,3.9515,3.9546,3.9161,3.9159,3.9158,3.9157,0,3.9467,3.9505,3.9572,3.9548,3.9555,3.9621,3.9531,3.955,3.948,3.9426,3.9494,3.9446,3.9443,3.946,3.9388,3.9542,3.9502,3.9411,3.9277,3.9487,3.9559,3.9588,3.9179,3.9174,3.9171,3.9167,0,0,3.9807,3.9736,3.9762,3.9753,3.9705,3.9731,3.9794,3.9796,3.9816,3.98,3.9848,3.9879,3.9797,3.9788,3.9714,3.9771,3.9961,3.9672,3.9669,3.9728,4.0131,4.0199,4.0236,3.99,3.9905,3.9909,4.0135,0,4.0022,4.0125,4.0041,4.0159,4.0194,4.0067,4.0122,4.0099,4.0053,4.0076,4.0024,4.0048,3.9937,3.9932,3.9983,3.9928,4.004,3.991,3.9943,3.9945,3.9955,4.0273,4.0343,4.0557,4.0162,4.0167,4.017,0,4.0282,4.0285,4.0409,4.0361,4.0373,4.0423,4.0422,4.0447,4.042,4.0383,4.0381,4.0294,4.0352,4.0227,4.0306,4.022,4.0229,4.0206,4.0212,4.0208,4.0068,4.0277,4.0623,4.0655,4.0213,4.021,4.0207,0,4.052,4.0554,4.0634,4.063,4.0576,4.0616,4.0594,4.0562,4.0572,4.0572,4.0577,4.0583,4.0585,4.0592,4.051,4.0425,4.0601,4.0467,4.0571,4.0574,4.0609,4.0607,4.0961,4.062,4.062,4.0619,4.0618,0,4.0766,4.0846,4.0741,4.079,4.0879,4.0784,4.0873,4.0839,4.0814,4.0854,4.0745,4.0784,4.0675,4.0704,4.0641,4.0718,4.072,4.0691,4.0673,4.07,4.0703,4.0701,4.0683,4.0627,4.0625,4.0624,4.0622,0,4.1042,4.0976,4.1055,4.1002,4.0991,4.1059,4.1012,4.1056,4.1007,4.106,4.1067,4.099,4.1019,4.0941,4.0955,4.0913,4.1026,4.0984,4.1036,4.1023,4.1131,4.1122,4.1493,4.1537,4.1171,4.1175,4.1178,0,4.1202,4.1262,4.122,4.1241,4.1229,4.1264,4.1276,4.1187,4.1204,4.1185,4.1232,4.1254,4.1266,4.1319,4.1263,4.1277,4.1233,4.1363,4.1233,4.1261,4.1235,4.1232,4.1238,4.1388,4.1392,4.1396,4.1399,0,4.1493,4.146,4.1482,4.1498,4.1517,4.1522,4.1519,4.1543,4.145,4.1475,4.1507,4.1518,4.1539,4.1562,4.1566,4.1542,4.1456,4.1442,4.1467,4.1493,4.1521,4.1508,4.1107,4.1432,4.1429,4.1426,4.1424,4.1423,4.1715,4.1765,4.1746,4.1777,4.1768,4.1772,4.1812,4.1773,4.1799,4.1812,4.1759,4.1805,4.1784,4.178,4.1768,4.1802,4.1742,4.1777,4.1786,4.1795,4.1814,4.152,4.1802,4.1801,4.18,4.1799,4.1798,0,4.2,4.1984,4.2015,4.2019,4.2046,4.197,4.1966,4.1992,4.2035,4.2025,4.2043,4.2083,4.2109,4.206,4.2077,4.2114,4.2075,4.2121,4.2116,4.2113,4.1866,4.1843,4.2153,4.2153,4.2153,4.2153,4.2153,4.2153,4.2151,4.2234,4.2201,4.228,4.2262,4.2309,4.2314,4.2318,4.231,4.2362,4.2385,4.2355,4.233,4.2347,4.2368,4.2353,4.2364,4.2424,4.2395,4.2164,4.2129,4.2096,4.2074,4.2428,4.2428,4.2639,4.2641,4.2643]},{"header":{"parameterUnit":"m.s-1","parameterCategory":1,"la1":30.2991,"la2":30.254,"lo1":-89.0895,"lo2":-89.0444,"dy":0.0017,"dx":0.0017,"nx":28,"ny":28,"refTime":"2023-08-26T09:00:00:Z","depth":0,"parameterNumber":3,"parameterNumberName":"V-component_of_WINDS"},"data":[0,0,0,0,0,0,0,0,0,0,0,0,0,0,0,0,0,0,0,0,0,0,0,0,0,0,0,0,0,0,0,0,0,0,0,0,0,0,0,0,0,0,0,0,0,0,0,0,0,0,0,0,0,0,0,0,0,0,1.9816,1.9814,0,1.9686,1.9684,1.9683,1.9644,1.9645,1.9646,1.9646,1.9502,1.9497,1.9493,0,0,0,0,0,0,0,0,0,0,0,0,0,2.0016,2.0013,1.9816,1.9814,1.9813,1.9686,1.9684,1.9682,1.9644,1.9645,1.9646,1.9647,1.9503,1.9498,1.9492,0,0,0,0,0,0,0,0,0,0,0,0,0,1.9912,2.0012,1.9816,1.9779,1.9774,1.9686,1.9684,1.9682,1.9644,1.9645,1.9646,1.9647,1.9505,1.9498,1.9492,1.9429,0,0,1.9471,1.9468,0,0,0,0,0,0,0,0,1.9918,1.9904,1.9786,1.9781,1.9776,1.9683,1.9702,1.9597,1.9644,1.9693,1.9646,1.9648,1.956,1.9549,1.9522,1.9422,1.9416,1.947,1.9466,1.9463,1.9461,0,0,0,0,0,0,0,1.9925,1.991,1.9764,1.9784,1.9778,1.9763,1.975,1.9682,1.9622,1.9689,1.9686,1.9671,1.9557,1.9529,1.9518,1.9413,1.947,1.9464,1.946,1.9458,1.9247,1.9245,0,0,0,0,0,0,1.9941,1.9916,1.9768,1.976,1.9851,1.9759,1.9744,1.9711,1.9623,1.961,1.9671,1.967,1.954,1.9526,1.9513,1.9429,1.9463,1.9457,1.9453,1.9248,1.9247,1.9245,0,0,0,0,0,0,1.9945,1.9928,1.9773,1.9837,1.9817,1.9754,1.9718,1.9708,1.9679,1.9609,1.9597,1.9653,1.954,1.9522,1.9449,1.9423,1.9454,1.9448,1.925,1.9248,1.9246,1.9263,0,0,0,0,0,0,1.9951,1.993,1.9909,1.9837,1.9813,1.9717,1.9717,1.9705,1.9669,1.9667,1.9589,1.9577,1.9539,1.9459,1.9442,1.9415,1.9443,1.9252,1.9249,1.9247,1.9265,1.9262,1.9259,0,0,0,0,0,1.9958,1.9918,1.9908,1.9891,1.9787,1.9716,1.9701,1.9662,1.9667,1.9643,1.9597,1.958,1.9429,1.9452,1.9433,1.9403,1.9254,1.925,1.9247,1.9266,1.9262,1.926,0,0,0,0,0,0,1.9986,1.9908,1.9897,1.9833,1.9781,1.9709,1.9678,1.9661,1.9604,1.9604,1.9553,1.9536,1.9465,1.9426,1.9453,1.9333,1.934,1.9333,1.9361,1.9357,1.9355,1.9365,1.9437,0,0,0,0,0,1.9986,1.9939,1.9871,1.9821,1.9796,1.9741,1.9709,1.9683,1.9626,1.9603,1.9551,1.9493,1.9431,1.9392,1.9333,1.9259,1.9237,1.9227,1.9225,1.9223,1.9217,1.9168,1.9161,1.9234,1.9234,1.9234,0,0,1.9983,1.9934,1.9907,1.9825,1.9782,1.9729,1.9723,1.9669,1.9627,1.9593,1.9521,1.948,1.9411,1.9336,1.93,1.9301,1.9191,1.9219,1.9218,1.9212,1.9163,1.9157,1.9151,1.9231,1.9232,1.9232,0,0,1.995,1.9911,1.9863,1.982,1.9755,1.9718,1.9706,1.9635,1.9608,1.9535,1.9507,1.9453,1.9351,1.9301,1.9263,1.9205,1.9184,1.9186,1.9172,1.9125,1.9119,1.9114,1.9088,1.908,1.918,1.918,1.918,0,1.9954,1.9878,1.984,1.9785,1.9747,1.9716,1.9663,1.9621,1.9539,1.9511,1.9514,1.9381,1.9333,1.9242,1.9228,1.9199,1.9179,1.9195,1.9124,1.9118,1.9112,1.9087,1.9078,1.9181,1.9181,1.918,1.918,0,1.9883,1.983,1.9797,1.9721,1.9679,1.9626,1.9574,1.9535,1.9511,1.9472,1.9393,1.9333,1.9258,1.9235,1.9211,1.9139,1.9141,1.9135,1.9141,1.9107,1.9082,1.9072,1.9181,1.9181,1.9181,1.9181,0,0,1.9868,1.9768,1.9757,1.9719,1.9643,1.9598,1.9539,1.9469,1.9434,1.9376,1.9322,1.9234,1.9226,1.9182,1.915,1.911,1.906,1.9107,1.9104,1.9097,1.897,1.8974,1.8964,1.9047,1.9045,1.9043,1.8975,0,1.9824,1.9724,1.9685,1.9601,1.9547,1.9513,1.9461,1.9405,1.9365,1.9309,1.9263,1.92,1.9197,1.9169,1.9128,1.9076,1.9034,1.908,1.899,1.8988,1.9007,1.8952,1.8957,1.8895,1.8965,1.8964,1.8963,0,1.976,1.9703,1.9615,1.954,1.9516,1.9471,1.9399,1.9348,1.9281,1.9254,1.9202,1.9172,1.9103,1.9113,1.9013,1.9046,1.9005,1.8974,1.897,1.8958,1.8972,1.8935,1.8875,1.8865,1.8948,1.8949,1.895,0,1.9753,1.9655,1.9587,1.9556,1.9468,1.9436,1.9397,1.9331,1.9289,1.9224,1.9195,1.9123,1.9082,1.9023,1.8971,1.8985,1.8874,1.8882,1.8844,1.8845,1.8822,1.8824,1.8751,1.8801,1.8801,1.8801,1.8801,0,1.9707,1.9653,1.9583,1.9541,1.9477,1.9429,1.9365,1.9323,1.9263,1.9208,1.9173,1.9121,1.9057,1.8994,1.8953,1.8872,1.8855,1.8827,1.8816,1.8829,1.8832,1.8801,1.8802,1.8798,1.8799,1.8799,1.88,0,1.969,1.9641,1.9565,1.9487,1.9465,1.9421,1.9351,1.9305,1.9262,1.9192,1.9173,1.9103,1.9027,1.897,1.8871,1.8842,1.8755,1.8746,1.878,1.8773,1.8738,1.8741,1.8641,1.8623,1.8688,1.8687,1.8687,0,1.9663,1.9621,1.9537,1.9499,1.9461,1.9401,1.9357,1.9305,1.926,1.9177,1.914,1.9062,1.8997,1.8875,1.8812,1.8734,1.872,1.869,1.8708,1.872,1.8714,1.8716,1.8709,1.8687,1.8687,1.8687,1.8686,0,1.962,1.9596,1.9537,1.9468,1.9417,1.9359,1.93,1.9269,1.9205,1.9155,1.9079,1.9028,1.8926,1.8846,1.8761,1.8713,1.8686,1.8681,1.8667,1.8679,1.8699,1.8683,1.877,1.8684,1.8684,1.8684,1.8684,1.8684,1.9594,1.9553,1.9486,1.9419,1.9369,1.9313,1.9266,1.9216,1.9152,1.9067,1.9039,1.8957,1.8883,1.8766,1.8717,1.8648,1.8648,1.863,1.8624,1.862,1.8618,1.8712,1.8633,1.8633,1.8633,1.8633,1.8633,0,1.9546,1.95,1.9439,1.9358,1.9303,1.9286,1.9217,1.9171,1.9101,1.9036,1.8972,1.8879,1.88,1.873,1.8646,1.8603,1.8588,1.8582,1.8584,1.8572,1.8626,1.8644,1.8596,1.8596,1.8596,1.8596,1.8596,1.8596,1.9514,1.9441,1.9409,1.9307,1.926,1.9184,1.9145,1.909,1.9037,1.8937,1.8872,1.8827,1.8757,1.8666,1.859,1.8571,1.8539,1.8536,1.8513,1.8564,1.8569,1.8573,1.859,1.8531,1.8531,1.8464,1.8463,1.8463]}]]